{"data":{"norad_id":63917,"intl_designator":"2025-095AD","name":"STARLINK-34075","alt_names":[],"object_type":"PAYLOAD","status":"ACTIVE","operator":null,"country":"US","launch_date":"2025-05-10","launch_site_code":"AFETR","launch_vehicle":null,"mission":null,"orbit_class":"UNKNOWN","rcs_meters":null,"size_class":null,"mass_kg":null,"dimensions":null,"purposes":["comms"],"wikipedia_slug":null,"has_3d_model":false,"image_url":null,"decayed_at":null,"tle_current":{"epoch":"2026-09-20T02:32:26.123424Z","epoch_age_seconds":181184,"freshness":"STALE","line1":"1 63917U 25095AD  26263.10585791  .00017097  00000+0  62934-3 0  9992","line2":"2 63917  43.0023 158.0444 0001593 267.8223  92.2446 15.27582276 77516","mean_motion":15.27582276,"eccentricity":0.0001593,"inclination_deg":43.0023,"raan_deg":158.0444,"arg_perigee_deg":267.8223,"mean_anomaly_deg":92.2446,"bstar":0.00062934,"rev_number":7751,"period_min":94.266608262218,"perigee_km":481.94929502588,"apogee_km":484.13526674477,"semimajor_km":6861.1792808853,"source":"CELESTRAK","updated_at":"2026-09-21T09:00:35.148542Z"}}}